Cheektowaga, NY

3:11 PM EDT on August 30, 2016 (GMT -0400)
Buffalo Niagara International

Weather History for KBUF - December, 2012

Change the Weather History Date:

Tuesday, December 4, 2012

  Actual Average Record
Temperature  
Mean Temperature 56 °F 34 °F  
Max Temperature 65 °F 40 °F 70 °F (1941)
Min Temperature 46 °F 28 °F -2 °F (1966)
Degree Days  
Heating Degree Days 9 31  
Month to date heating degree days 63 122  
Since 1 July heating degree days 1342 1455  
Cooling Degree Days 0 0  
Month to date cooling degree days 0 0  
Year to date cooling degree days 875 544  
Growing Degree Days 5 (Base 50)    
Moisture  
Dew Point 50 °F    
Average Humidity 78    
Maximum Humidity 93    
Minimum Humidity 63    
Precipitation  
Precipitation 0.27 in 0.12 in 0.95 in (1891)
Month to date precipitation 0.62 0.50  
Year to date precipitation 29.78 37.09  
Snow  
Snow 0.00 in 0.70 in 5.40 in (2006)
Month to date snowfall 0.0 2.5  
Since 1 July snowfall 2.4 11.3  
Snow Depth 0.00 in    
Sea Level Pressure  
Sea Level Pressure 29.96 in    
Wind  
Wind Speed 15 mph (SW)    
Max Wind Speed 25 mph    
Max Gust Speed 30 mph    
Visibility 8 miles    
Events Rain    
T = Trace of Precipitation, MM = Missing Value Source: NWS Daily Summary

Daily Weather History Graph

Daily Weather History Graph

Search for Another Location

Airport or City:

Trip Planner

Search our weather history database for the weather conditions in past years. The results will help you decide how hot, cold, wet, or windy it might be!

Date:

Astronomy

Dec. 04, 2012 Rise Set
Actual Time 7:29 AM EST 4:40 PM EST
Civil Twilight 6:57 AM EST 5:12 PM EST
Nautical Twilight 6:22 AM EST 5:48 PM EST
Astronomical Twilight 5:48 AM EST 6:22 PM EST
Moon 10:32 PM EST (12/4) 11:18 AM EST (12/4)
Length of Visible Light 10h 14m
Length of Day
9h 10m
Waning Gibbous, 69% of the Moon is Illuminated
Dec 4
Waning Gibbous
Dec 6
Last Quarter
Dec 13
New
Dec 20
First Quarter
Dec 28
Full

Hourly Weather History & Observations

Time (EST) Temp. Windchill Dew Point Humidity Pressure Visibility Wind Dir Wind Speed Gust Speed Precip Events Conditions
12:54 AM 59.0 °F - 55.0 °F 87% 30.04 in 9.0 mi South 11.5 mph 20.7 mph 0.00 in   Mostly Cloudy
1:54 AM 59.0 °F - 54.0 °F 83% 30.03 in 10.0 mi SSW 13.8 mph - N/A   Mostly Cloudy
2:54 AM 60.1 °F - 54.0 °F 80% 30.03 in 10.0 mi SSW 15.0 mph - N/A   Mostly Cloudy
3:54 AM 60.1 °F - 53.1 °F 78% 30.02 in 10.0 mi South 13.8 mph - N/A   Scattered Clouds
4:54 AM 60.1 °F - 52.0 °F 75% 30.01 in 10.0 mi SSW 16.1 mph - N/A   Mostly Cloudy
5:54 AM 61.0 °F - 52.0 °F 72% 29.99 in 10.0 mi SSW 15.0 mph - N/A   Mostly Cloudy
6:54 AM 60.1 °F - 52.0 °F 75% 29.99 in 10.0 mi SSW 13.8 mph - N/A   Mostly Cloudy
7:54 AM 61.0 °F - 51.1 °F 70% 29.99 in 10.0 mi SSW 16.1 mph - N/A   Mostly Cloudy
8:54 AM 62.1 °F - 51.1 °F 67% 29.99 in 10.0 mi SSW 17.3 mph - N/A   Mostly Cloudy
9:54 AM 63.0 °F - 51.1 °F 65% 29.99 in 10.0 mi SSW 19.6 mph 26.5 mph N/A   Mostly Cloudy
10:54 AM 64.0 °F - 51.1 °F 63% 29.96 in 10.0 mi SSW 21.9 mph 28.8 mph N/A   Mostly Cloudy
11:54 AM 64.0 °F - 51.1 °F 63% 29.93 in 10.0 mi SSW 21.9 mph 28.8 mph N/A   Mostly Cloudy
12:54 PM 64.4 °F - 51.8 °F 64% 29.91 in 10.0 mi SW 16.1 mph 24.2 mph N/A   Overcast
1:54 PM 61.0 °F - 52.0 °F 72% 29.90 in 10.0 mi SW 15.0 mph - 0.00 in Rain Light Rain
2:32 PM 60.8 °F - 51.8 °F 72% 29.90 in 8.0 mi SW 13.8 mph 21.9 mph 0.00 in Rain Light Rain
2:54 PM 60.1 °F - 52.0 °F 75% 29.89 in 10.0 mi WSW 13.8 mph 21.9 mph 0.00 in Rain Light Rain
3:24 PM 59.0 °F - 51.8 °F 77% 29.90 in 1.5 mi West 16.1 mph 25.3 mph 0.00 in Rain Heavy Rain
3:32 PM 55.4 °F - 51.8 °F 88% 29.90 in 2.0 mi West 13.8 mph 27.6 mph 0.02 in Rain Rain
3:40 PM 55.4 °F - 53.6 °F 94% 29.91 in 2.0 mi West 17.3 mph 21.9 mph 0.03 in Rain Light Rain
3:44 PM 55.4 °F - 53.6 °F 94% 29.91 in 2.0 mi West 18.4 mph 25.3 mph 0.03 in Rain Light Rain
3:51 PM 55.4 °F - 53.6 °F 94% 29.91 in 1.5 mi West 19.6 mph 25.3 mph 0.03 in Rain Light Rain
3:54 PM 55.0 °F - 53.1 °F 93% 29.91 in 1.5 mi West 15.0 mph 25.3 mph 0.04 in Rain Rain
4:02 PM 55.4 °F - 53.6 °F 94% 29.91 in 2.0 mi West 15.0 mph 23.0 mph 0.01 in Rain Light Rain
4:12 PM 55.4 °F - 53.6 °F 94% 29.91 in 3.0 mi West 13.8 mph 20.7 mph 0.02 in Rain Light Rain
4:54 PM 54.0 °F - 52.0 °F 93% 29.92 in 3.0 mi West 6.9 mph - 0.05 in Rain Light Rain
5:50 PM 53.6 °F - 51.8 °F 94% 29.93 in 10.0 mi WSW 8.1 mph - 0.03 in Rain Light Rain
5:54 PM 53.1 °F - 51.1 °F 93% 29.94 in 10.0 mi SW 6.9 mph - 0.03 in Rain Light Rain
6:54 PM 50.0 °F - 48.9 °F 96% 29.96 in 3.0 mi SW 6.9 mph - 0.06 in Rain Light Rain
7:54 PM 50.0 °F - 46.9 °F 89% 29.97 in 6.0 mi SW 9.2 mph - 0.07 in Rain Light Rain
8:54 PM 48.0 °F - 45.0 °F 89% 29.97 in 10.0 mi SW 13.8 mph 23.0 mph 0.02 in Rain Light Rain
9:36 PM 46.4 °F 40.1 °F 44.6 °F 93% 29.95 in 10.0 mi SW 15.0 mph 24.2 mph 0.00 in Rain Light Rain
9:43 PM 46.4 °F 40.1 °F 44.6 °F 93% 29.95 in 10.0 mi SW 15.0 mph 24.2 mph N/A Rain Light Rain
9:47 PM 46.4 °F 40.1 °F 44.6 °F 93% 29.95 in 10.0 mi SW 15.0 mph 25.3 mph 0.00 in Rain Light Rain
9:54 PM 46.9 °F - 44.1 °F 90% 29.96 in 10.0 mi SW 18.4 mph 26.5 mph 0.00 in Rain Light Rain
10:02 PM 46.4 °F 40.1 °F 42.8 °F 87% 29.96 in 10.0 mi SW 15.0 mph 25.3 mph 0.00 in Rain Light Rain
10:54 PM 46.0 °F 38.3 °F 42.1 °F 86% 29.98 in 10.0 mi WSW 20.7 mph 25.3 mph 0.00 in Rain Light Rain
11:01 PM 46.4 °F 39.8 °F 42.8 °F 87% 29.98 in 10.0 mi WSW 16.1 mph 25.3 mph 0.00 in Rain Light Rain
11:44 PM 46.4 °F 39.8 °F 42.8 °F 87% 29.98 in 10.0 mi WSW 16.1 mph 25.3 mph 0.00 in Rain Light Rain
11:54 PM 46.0 °F 39.0 °F 43.0 °F 89% 29.99 in 10.0 mi WSW 17.3 mph 28.8 mph 0.00 in Rain Light Rain